Cullman, AL

12:25 AM CST on November 20, 2017 (GMT -0600)
Cullman

Weather History for K3A1 - March, 2013

Change the Weather History Date:

Thursday, March 21, 2013

  Actual Average (KHSV) Record (KHSV)
Temperature  
Mean Temperature 35 °F -  
Max Temperature 45 °F 63 °F 90 °F (1907)
Min Temperature 25 °F 41 °F 20 °F (1965)
Degree Days  
Heating Degree Days 30    
Moisture  
Dew Point 18 °F    
Average Humidity 49    
Maximum Humidity 79    
Minimum Humidity 27    
Precipitation  
Precipitation 0.00 in - - ()
Sea Level Pressure  
Sea Level Pressure 30.02 in    
Wind  
Wind Speed 5 mph (NNW)    
Max Wind Speed 10 mph    
Max Gust Speed 16 mph    
Visibility 10 miles    
Events Rain    
Averages and records for this station are not official NWS values.
T = Trace of Precipitation, MM = Missing Value Source: NWS Daily Summary

Daily Weather History Graph

Daily Weather History Graph

Search for Another Location

Airport or City:

Trip Planner

Search our weather history database for the weather conditions in past years. The results will help you decide how hot, cold, wet, or windy it might be!

Date:

Astronomy

Mar. 21, 2013 Rise Set
Actual Time 6:49 AM CDT 7:00 PM CDT
Civil Twilight 6:24 AM CDT 7:25 PM CDT
Nautical Twilight 5:55 AM CDT 7:54 PM CDT
Astronomical Twilight 5:25 AM CDT 8:24 PM CDT
Moon 1:41 PM CDT (3/21) 2:58 AM CDT (3/21)
Length of Visible Light 13h 00m
Length of Day
12h 10m
Waxing Gibbous, 69% of the Moon is Illuminated
Mar 21
Waxing Gibbous
Mar 27
Full
Apr 2
Last Quarter
Apr 10
New
Apr 18
First Quarter

Hourly Weather History & Observations

Time (CDT) Temp. Windchill Dew Point Humidity Pressure Visibility Wind Dir Wind Speed Gust Speed Precip Events Conditions
12:15 AM 38.3 °F 35.9 °F 24.6 °F 58% 30.01 in 10.0 mi WNW 3.5 mph - N/A   Clear
12:35 AM 37.9 °F 34.4 °F 24.1 °F 57% 30.00 in 10.0 mi NW 4.6 mph - N/A   Clear
1:15 AM 37.2 °F 33.6 °F 24.6 °F 60% 30.00 in 10.0 mi NNW 4.6 mph - N/A   Clear
1:35 AM 36.1 °F 33.5 °F 25.7 °F 66% 30.00 in 10.0 mi NNW 3.5 mph - N/A   Clear
1:55 AM 35.2 °F 30.3 °F 26.8 °F 71% 30.01 in 10.0 mi North 5.8 mph - N/A   Clear
2:15 AM 34.3 °F 30.2 °F 27.7 °F 77% 30.01 in 10.0 mi North 4.6 mph - N/A   Clear
2:35 AM 33.4 °F 30.4 °F 27.5 °F 79% 30.01 in 10.0 mi North 3.5 mph - N/A   Clear
2:55 AM 32.5 °F 25.5 °F 26.6 °F 79% 30.02 in 10.0 mi North 8.1 mph - N/A   Clear
3:15 AM 32.2 °F 24.4 °F 25.0 °F 75% 30.01 in 10.0 mi North 9.2 mph - N/A   Clear
3:35 AM 31.8 °F 25.4 °F 23.4 °F 71% 30.01 in 10.0 mi North 6.9 mph - N/A   Clear
3:55 AM 30.7 °F 24.1 °F 23.0 °F 73% 30.01 in 10.0 mi North 6.9 mph - N/A   Clear
4:15 AM 30.0 °F 25.2 °F 22.8 °F 75% 30.02 in 10.0 mi North 4.6 mph - N/A   Clear
4:35 AM 29.3 °F 24.3 °F 21.9 °F 74% 30.02 in 10.0 mi North 4.6 mph - N/A   Clear
4:55 AM 28.8 °F 23.7 °F 20.3 °F 71% 30.02 in 10.0 mi North 4.6 mph - N/A   Clear
5:15 AM 28.0 °F 21.7 °F 19.4 °F 70% 30.03 in 10.0 mi North 5.8 mph - N/A   Clear
5:35 AM 27.7 °F 21.3 °F 18.1 °F 67% 30.03 in 10.0 mi North 5.8 mph - N/A   Clear
5:55 AM 27.3 °F 20.9 °F 16.9 °F 65% 30.03 in 10.0 mi North 5.8 mph - N/A   Clear
6:15 AM 26.8 °F 20.2 °F 16.2 °F 64% 30.04 in 10.0 mi North 5.8 mph - N/A   Clear
6:35 AM 26.4 °F - 15.8 °F 64% 30.05 in 10.0 mi Calm Calm - N/A   Clear
6:55 AM 26.1 °F - 15.8 °F 65% 30.06 in 10.0 mi Calm Calm - N/A   Clear
7:15 AM 25.7 °F 21.5 °F 14.9 °F 64% 30.06 in 10.0 mi North 3.5 mph - N/A   Clear
7:35 AM 26.6 °F 21.2 °F 13.8 °F 59% 30.07 in 10.0 mi North 4.6 mph - N/A   Clear
7:55 AM 27.7 °F 22.4 °F 13.8 °F 56% 30.08 in 10.0 mi NNW 4.6 mph - N/A   Clear
8:15 AM 28.2 °F 23.1 °F 14.4 °F 56% 30.08 in 10.0 mi North 4.6 mph - N/A   Clear
8:35 AM 29.1 °F 21.3 °F 14.0 °F 53% 30.08 in 10.0 mi North 8.1 mph - N/A   Clear
8:55 AM 29.8 °F 20.9 °F 12.7 °F 49% 30.09 in 10.0 mi NNW 10.4 mph - N/A   Clear
9:15 AM 30.4 °F 22.2 °F 11.8 °F 46% 30.10 in 10.0 mi NW 9.2 mph - N/A   Clear
9:35 AM 31.6 °F 24.4 °F 12.2 °F 45% 30.10 in 10.0 mi North 8.1 mph - N/A   Clear
9:55 AM 32.2 °F 23.8 °F 11.3 °F 42% 30.09 in 10.0 mi NNW 10.4 mph - N/A   Clear
10:15 AM 32.9 °F 25.9 °F 11.1 °F 40% 30.09 in 10.0 mi North 8.1 mph - N/A   Clear
10:35 AM 33.1 °F 26.1 °F 10.8 °F 40% 30.08 in 10.0 mi NNW 8.1 mph - N/A   Clear
10:55 AM 34.2 °F 29.0 °F 11.3 °F 39% 30.08 in 10.0 mi North 5.8 mph - N/A   Clear
11:35 AM 36.7 °F 30.5 °F 12.2 °F 37% 30.06 in 10.0 mi NNW 8.1 mph - N/A   Clear
11:55 AM 37.9 °F 32.1 °F 10.8 °F 33% 30.06 in 10.0 mi NW 8.1 mph - N/A   Clear
12:15 PM 38.3 °F 33.2 °F 9.7 °F 31% 30.06 in 10.0 mi North 6.9 mph - N/A   Clear
12:35 PM 39.0 °F 34.0 °F 10.4 °F 31% 30.06 in 10.0 mi NNW 6.9 mph 16.1 mph N/A   Clear
12:55 PM 40.3 °F 33.9 °F 10.4 °F 29% 30.05 in 10.0 mi North 10.4 mph 16.1 mph N/A   Clear
1:15 PM 40.3 °F 33.9 °F 10.8 °F 30% 30.05 in 10.0 mi NNW 10.4 mph 16.1 mph N/A   Clear
1:35 PM 41.0 °F 35.2 °F 11.3 °F 30% 30.04 in 10.0 mi NW 9.2 mph - N/A   Clear
1:55 PM 42.4 °F 38.1 °F 11.8 °F 29% 30.02 in 10.0 mi NNW 6.9 mph - N/A   Clear
2:15 PM 42.6 °F 37.2 °F 11.8 °F 29% 30.01 in 10.0 mi North 9.2 mph - N/A   Clear
2:35 PM 42.4 °F 37.5 °F 11.8 °F 29% 30.00 in 10.0 mi NW 8.1 mph - N/A   Clear
2:55 PM 44.1 °F 40.8 °F 12.4 °F 28% 29.99 in 10.0 mi NNW 5.8 mph - N/A   Clear
3:15 PM 44.1 °F - 12.7 °F 28% 29.99 in 10.0 mi Calm Calm - N/A   Clear
3:35 PM 44.8 °F 41.6 °F 12.0 °F 27% 29.98 in 10.0 mi WNW 5.8 mph - N/A   Clear
3:55 PM 45.0 °F 42.6 °F 12.4 °F 27% 29.98 in 10.0 mi North 4.6 mph - N/A   Clear
4:15 PM 45.1 °F 42.0 °F 12.9 °F 27% 29.98 in 10.0 mi NNW 5.8 mph - N/A   Clear
4:35 PM 44.8 °F 43.3 °F 12.6 °F 27% 29.96 in 10.0 mi NNE 3.5 mph - N/A   Clear
4:55 PM 45.5 °F 43.2 °F 13.8 °F 28% 29.96 in 10.0 mi NW 4.6 mph - N/A   Clear
5:15 PM 43.9 °F 42.3 °F 13.5 °F 29% 29.96 in 10.0 mi NNE 3.5 mph - N/A   Clear
5:35 PM 43.3 °F 41.7 °F 14.0 °F 31% 29.96 in 10.0 mi NNW 3.5 mph - N/A   Clear
5:55 PM 42.8 °F 41.1 °F 14.4 °F 32% 29.96 in 10.0 mi NNW 3.5 mph - N/A   Clear
6:15 PM 42.6 °F - 14.9 °F 33% 29.97 in 10.0 mi Calm Calm - N/A   Clear
6:35 PM 42.1 °F - 14.4 °F 33% 29.97 in 10.0 mi Calm Calm - N/A   Clear
6:55 PM 41.5 °F 38.6 °F 16.5 °F 36% 29.97 in 10.0 mi North 4.6 mph - N/A   Clear
7:15 PM 40.8 °F - 18.1 °F 40% 29.97 in 10.0 mi Calm Calm - N/A   Clear
7:35 PM 40.5 °F - 17.8 °F 40% 29.97 in 10.0 mi Calm Calm - N/A   Clear
7:55 PM 40.5 °F - 19.0 °F 42% 29.98 in 10.0 mi Calm Calm - N/A   Scattered Clouds
8:15 PM 39.9 °F 37.8 °F 20.7 °F 46% 29.97 in 10.0 mi NNE 3.5 mph - N/A   Scattered Clouds
8:35 PM 39.7 °F - 21.4 °F 48% 29.98 in 10.0 mi Calm Calm - N/A   Scattered Clouds
8:55 PM 39.9 °F - 21.2 °F 47% 29.98 in 10.0 mi Calm Calm - N/A   Clear
9:15 PM 39.4 °F - 21.7 °F 49% 29.98 in 10.0 mi Calm Calm - N/A   Clear
9:35 PM 39.0 °F - 23.7 °F 54% 29.98 in 10.0 mi Calm Calm - N/A   Clear
9:55 PM 38.8 °F - 26.2 °F 61% 29.99 in 10.0 mi Calm Calm - N/A   Clear
10:15 PM 38.8 °F - 26.4 °F 61% 29.99 in 10.0 mi Calm Calm - N/A   Clear
10:35 PM 39.0 °F - 24.6 °F 56% 29.99 in 10.0 mi Calm Calm - N/A   Clear
10:55 PM 39.4 °F - 25.9 °F 58% 30.01 in 10.0 mi Calm Calm - N/A   Clear
11:15 PM 39.4 °F - 26.1 °F 59% 30.01 in 10.0 mi Calm Calm - N/A   Mostly Cloudy
11:35 PM 39.6 °F 37.4 °F 24.4 °F 55% 30.01 in 7.0 mi North 3.5 mph - N/A Rain Light Rain
11:55 PM 39.6 °F - 23.5 °F 53% 30.03 in 10.0 mi Calm Calm - N/A   Scattered Clouds